Location: Fluertsh�userhof
(48.7537°N, 10.3850°E)
Time: 05:41:36
(UTC+00:00)

Lacrosse 5 rocket - Pass Details

Date: 18 September 2020
Orbit: 461 x 635 km, 57.0° (Epoch: 22 October)

Event Time Altitude Azimuth Distance (km) Brightness Sun altitude
Rises 18:07:04 0° 254° (WSW) 2,721 6.1 -7.8°
Reaches altitude 10° 18:09:18 10° 260° (W) 1,859 5.3 -8.2°
Maximum altitude 18:13:24 47° 335° (NNW) 780 2.4 -8.9°
Drops below altitude 10° 18:17:44 10° 50° (NE) 1,964 3.8 -9.6°
Enters shadow 18:19:33 - 55° (NE) 2,657 4.4 -9.9°
